Погода в Самолве

Россия / Псковская область     58°17′27″N   27°37′19″E
темп.,
°C
ветер,
м/с
пор.,
м/с
влажн.,
%
обл.,
%
осадки,
мм/ч
давл.,
гПа
погр.,
м
17 мая, вт
вт1700:00+7з5117243 0.0 1014374
03:00+4зсз599286 0.2 1013290
06:00+7ссз698799 0.6 1013803
09:00+6ссз81081100 1.2 1015899
12:00+7с9106894 0.1 10161162
15:00+8с81061100 0.1 10171145
18:00+8с91272100 0.0 10181175
21:00+7с81279100 0.1 10191431
18 мая, ср
ср1800:00+7с8107297 0.0 10211083
03:00+7с797193 0.1 1022978
06:00+6ссз587851 0.0 1023832
09:00+7сз466899 0.0 1024713
12:00+10ссз356066 0.0 1023623
15:00+12зсз475392 0.0 1021702
18:00+14з610475 0.0 1019699
21:00+11з71359100 0.0 1020412
19 мая, чт
чт1900:00+8з7156776 0.0 1019414
03:00+8з71573100 0.0 1019390
06:00+8з51176100 0.0 1019368
09:00+10зсз357295 0.0 1020234
12:00+10сз3476100 0.0 1021221
15:00+11ссз2374100 0.1 1020393
18:00+12зсз1270100 0.0 1020294
21:00+11з2278100 0.0 101931
20 мая, пт
пт2000:00+10ю1183100 0.0 101911
03:00+10юв3381100 0.0 101756
06:00+9юв4687100 0.3 1016132
09:00+9юв6998100 6.6 1014268
12:00+9вюв61198100 7.8 1012348
15:00+9вюв71298100 17.0 1010411
18:00+9в71297100 6.2 1008440
21:00+9всв81595100 10.3 1008537
21 мая, сб
сб2100:00+9всв81489100 1.6 1009571
03:00+8св51091100 1.6 1010385
06:00+6всв61286100 0.0 1010314
09:00+9всв5879100 0.0 1010410
12:00+12в4764100 0.0 1008590
15:00+12юв4765100 0.0 1008455
18:00+12вюв1370100 0.0 1007125
21:00+11всв4763100 0.0 1007129